| time (UTC) | temp C | wind direction | speed KPH | gust KPH | rain 1hr cm | rain 24hr cm | rain mn cm | humidity % | barometer mb |
| 20260504190012 | 25 | 264 | 0.0 | 6.4 | 0.00 | 0.00 | 0.00 | 25 | 1003.0 |
| 20260504184511 | 25 | 270 | 0.0 | 1.6 | 0.00 | 0.00 | 0.00 | 25 | 1003.2 |
| 20260504183006 | 25 | 264 | 0.0 | 1.6 | 0.00 | 0.00 | 0.00 | 29 | 1003.3 |
| 20260504181502 | 24 | 309 | 0.0 | 1.6 | 0.00 | 0.00 | 0.00 | 41 | 1003.4 |
| 20260504180159 | 23 | 312 | 0.0 | 6.4 | 0.00 | 0.00 | 0.00 | 40 | 1003.5 |
| 20260504174555 | 22 | 314 | 0.0 | 1.6 | 0.00 | 0.00 | 0.00 | 43 | 1003.4 |
| 20260504173100 | 20 | 267 | 0.0 | 1.6 | 0.00 | 0.00 | 0.00 | 45 | 1003.6 |
| 20260504171547 | 20 | 262 | 0.0 | 6.4 | 0.00 | 0.00 | 0.00 | 49 | 1003.7 |
| 20260504081536 | 17 | 112 | 0.0 | 1.6 | 0.00 | 0.00 | 0.00 | 43 | 1003.4 |
| 20260504050018 | 20 | 183 | 0.0 | 1.6 | 0.00 | 0.00 | 0.00 | 40 | 1003.3 |
| 20260504044517 | 20 | 271 | 0.0 | 6.4 | 0.00 | 0.00 | 0.00 | 41 | 1003.2 |
| 20260504043016 | 20 | 207 | 0.0 | 3.2 | 0.00 | 0.00 | 0.00 | 41 | 1003.2 |
| 20260504041517 | 20 | 170 | 0.0 | 1.6 | 0.00 | 0.00 | 0.00 | 41 | 1003.0 |
| 20260504040016 | 20 | 224 | 0.0 | 9.7 | 0.00 | 0.00 | 0.00 | 42 | 1002.9 |
| 20260504034526 | 20 | 162 | 0.0 | 4.8 | 0.00 | 0.00 | 0.00 | 42 | 1002.7 |
| 20260504033018 | 21 | 149 | 0.0 | 4.8 | 0.00 | 0.00 | 0.00 | 40 | 1002.5 |
| 20260504031514 | 21 | 217 | 0.0 | 4.8 | 0.00 | 0.00 | 0.00 | 41 | 1002.3 |
| 20260504030013 | 22 | 143 | 0.0 | 4.8 | 0.00 | 0.00 | 0.00 | 39 | 1002.2 |
| 20260504024512 | 23 | 160 | 0.0 | 1.6 | 0.00 | 0.00 | 0.00 | 36 | 1002.2 |
| 20260504023012 | 25 | 229 | 0.0 | 1.6 | 0.00 | 0.00 | 0.00 | 33 | 1002.1 |
| 20260504021511 | 26 | 157 | 0.0 | 1.6 | 0.00 | 0.00 | 0.00 | 31 | 1002.1 |
| 20260504020009 | 26 | 278 | 3.2 | 4.8 | 0.00 | 0.00 | 0.00 | 33 | 1002.3 |
| 20260504014517 | 27 | 261 | 0.0 | 1.6 | 0.00 | 0.00 | 0.00 | 29 | 1002.4 |
| 20260504013008 | 27 | 117 | 0.0 | 4.8 | 0.00 | 0.00 | 0.00 | 27 | 1002.6 |
| 20260504011503 | 27 | 99 | 0.0 | 4.8 | 0.00 | 0.00 | 0.00 | 26 | 1002.7 |
| 20260504010120 | 27 | 115 | 0.0 | 1.6 | 0.00 | 0.00 | 0.00 | 25 | 1002.9 |
| 20260504004556 | 27 | 109 | 0.0 | 6.4 | 0.00 | 0.00 | 0.00 | 26 | 1003.1 |
| 20260504003050 | 27 | 63 | 0.0 | 9.7 | 0.00 | 0.00 | 0.00 | 25 | 1003.3 |
| 20260504001605 | 27 | 109 | 0.0 | 9.7 | 0.00 | 0.00 | 0.00 | 25 | 1003.4 |
| 20260504000044 | 27 | 30 | 1.6 | 14.5 | 0.00 | 0.00 | 0.00 | 25 | 1003.6 |
| 20260503234539 | 27 | 61 | 0.0 | 9.7 | 0.00 | 0.00 | 0.00 | 25 | 1003.8 |
| 20260503233038 | 27 | 1 | 4.8 | 9.7 | 0.00 | 0.00 | 0.00 | 25 | 1004.0 |
| 20260503231545 | 27 | 76 | 0.0 | 8.0 | 0.00 | 0.00 | 0.00 | 25 | 1004.3 |
| 20260503230030 | 27 | 15 | 1.6 | 14.5 | 0.00 | 0.00 | 0.00 | 26 | 1004.6 |
| 20260503224526 | 27 | 25 | 0.0 | 11.3 | 0.00 | 0.00 | 0.00 | 24 | 1004.8 |
| 20260503223026 | 26 | 108 | 0.0 | 6.4 | 0.00 | 0.00 | 0.00 | 25 | 1005.0 |
| 20260503221520 | 27 | 9 | 3.2 | 12.9 | 0.00 | 0.00 | 0.00 | 23 | 1005.2 |
| 20260503220018 | 27 | 161 | 0.0 | 1.6 | 0.00 | 0.00 | 0.00 | 24 | 1005.6 |
| 20260503214514 | 27 | 235 | 0.0 | 4.8 | 0.00 | 0.00 | 0.00 | 24 | 1005.8 |
| 20260503213012 | 27 | 301 | 0.0 | 3.2 | 0.00 | 0.00 | 0.00 | 25 | 1006.0 |
| 20260503211517 | 26 | 10 | 0.0 | 16.1 | 0.00 | 0.00 | 0.00 | 26 | 1006.2 |
| 20260503210014 | 27 | 323 | 0.0 | 6.4 | 0.00 | 0.00 | 0.00 | 25 | 1006.4 |
| 20260503204503 | 26 | 15 | 1.6 | 9.7 | 0.00 | 0.00 | 0.00 | 27 | 1006.6 |
| 20260503203007 | 26 | 3 | 1.6 | 8.0 | 0.00 | 0.00 | 0.00 | 25 | 1006.7 |
| 20260503201600 | 26 | 240 | 0.0 | 1.6 | 0.00 | 0.00 | 0.00 | 27 | 1007.0 |
| 20260503200056 | 26 | 356 | 0.0 | 3.2 | 0.00 | 0.00 | 0.00 | 27 | 1007.1 |
| 20260503194554 | 25 | 332 | 0.0 | 6.4 | 0.00 | 0.00 | 0.00 | 26 | 1007.4 |
| 20260503193050 | 25 | 256 | 0.0 | 6.4 | 0.00 | 0.00 | 0.00 | 33 | 1007.6 |
| 20260503191601 | 24 | 276 | 0.0 | 1.6 | 0.00 | 0.00 | 0.00 | 34 | 1007.8 |